Regional Weather Roundup
Issued by NWS

Home | Current Version | Previous Version | Graphics & Text | Print | Product List | Glossary On
Versions: 1 2 3 4 5 6 7 8 9 10 11 12 13 14 15 16 17 18 19 20 21 22 23 24 25 26 27 28 29 30 31 32 33 34 35 36 37 38 39 40 41 42 43 44 45 46 47 48 49 50
338
ASUS44 KJAN 210610
RWRMS

MISSISSIPPI HOURLY WEATHER ROUNDUP
NATIONAL WEATHER SERVICE JACKSON MS
100 AM CDT THU AUG 21 2014

NOTE: "FAIR: INDICATES FEW OR NO CLOUDS BELOW 12,000 FEET WITH NO
SIGNIFICANT WEATHER AND/OR OBSTRUCTIONS TO VISIBILITY.

MSZ001>002-007>008-010>013-018>021-025>028-034>036-210700-
NORTHWEST MISSISSIPPI

CITY           SKY/WX    TMP DP  RH WIND       PRES   REMARKS
CLARKSDALE     FAIR      75  75 100 CALM      30.05S
CLEVELAND      FAIR      77  74  88 S5        30.03F
GREENWOOD      FAIR      75  73  93 CALM      30.05F
6HR MIN TEMP:  75; 6HR MAX TEMP:  86;

GREENVILLE     FAIR      76  71  85 S7        30.05R
6HR MIN TEMP:  76; 6HR MAX TEMP:  89;

GRENADA        FAIR      72  72 100 CALM      30.06S
OLIVE BRANCH   CLEAR     73  73 100 S6        30.06S
OXFORD         FAIR      73  72  94 CALM      30.09S
TUNICA         FAIR      75  72  88 S7        30.05F
$$

MSZ003>006-009-014>017-022>024-029>033-037>039-210700-
NORTHEAST MISSISSIPPI

CITY           SKY/WX    TMP DP  RH WIND       PRES   REMARKS
BELMONT        FAIR      73  73  98 CALM      30.08F
COLUMBUS AFB   FAIR      75  73  95 CALM      30.07F
6HR MIN TEMP:  75; 6HR MAX TEMP:  90;

CORINTH        FAIR      73  72  94 CALM      30.07S
GOLDN TRIANGLE FAIR      79  70  73 CALM      30.09S
STARKVILLE     FAIR      73  70  88 CALM      30.08S
TUPELO         FAIR      77  73  87 CALM      30.07S
6HR MIN TEMP:  75; 6HR MAX TEMP:  89;

$$

MSZ040-058-210700-
CENTRAL MISSISSIPPI

CITY           SKY/WX    TMP DP  RH WIND       PRES   REMARKS
JACKSON INTL   FAIR      76  72  87 S3        30.08S
6HR MIN TEMP:  75; 6HR MAX TEMP:  89;

JACKSON HAWKNS FAIR      78  72  81 S3        30.08S
6HR MIN TEMP:  78; 6HR MAX TEMP:  90;

MERIDIAN KEY   FAIR      76  73  91 CALM      30.09F
6HR MIN TEMP:  75; 6HR MAX TEMP:  89; 6HR PCP:  0.03;

MERIDIAN NAS   FAIR      75  73  93 S3        30.09S
6HR MIN TEMP:  75; 6HR MAX TEMP:  89;

RAYMOND        FAIR      75  70  83 CALM      30.08S HAZE
VICKSBURG      FAIR      75  72  90 SW3       30.07R
6HR MIN TEMP:  74; 6HR MAX TEMP:  87;

$$

MSZ059>079-210700-
SOUTH MISSISSIPPI

CITY           SKY/WX    TMP DP  RH WIND       PRES   REMARKS
BROOKHAVEN     FAIR      73  72  94 CALM      30.11S
COLUMBIA       FOG       75  73  94 MISG      30.08F VSB<1/4
HATTIESBURG    FAIR      79  75  87 CALM      30.09F
6HR MIN TEMP:  78; 6HR MAX TEMP:  93;

MCCOMB         FAIR      75  70  84 CALM      30.10R
6HR MIN TEMP:  74; 6HR MAX TEMP:  83;

NATCHEZ        FAIR      75  72  88 CALM      30.10R
6HR MIN TEMP:  75; 6HR MAX TEMP:  84;

PINE BELT      FAIR      75  72  88 CALM      30.11S
6HR MIN TEMP:  73; 6HR MAX TEMP:  91;

$$

MSZ080>082-210700-
COASTAL MISSISSIPPI

CITY           SKY/WX    TMP DP  RH WIND       PRES   REMARKS
BILOXI         FAIR      82  76  82 W2        30.08F
6HR MIN TEMP:  82; 6HR MAX TEMP:  87;

PASCAGOULA     FAIR      75  74  96 CALM      30.09F
6HR MIN TEMP:  75; 6HR MAX TEMP:  85;

GULFPORT       FAIR      79  76  90 CALM      30.07F
6HR MIN TEMP:  79; 6HR MAX TEMP:  87;

$$



USA.gov is the U.S. government's official web portal to all federal, state and local government web resources and services.